TimeEST,TemperatureF,Dew PointF,Humidity,Sea Level PressureIn,VisibilityMPH,Wind Direction,Wind SpeedMPH,Gust SpeedMPH,PrecipitationIn,Events,Conditions,WindDirDegrees,DateUTC
12:54 AM,36.0,28.9,76,30.05,10.0,NE,29.9,39.1,N/A,,Overcast,50,2013-03-07 05:54:00
1:54 AM,36.0,28.0,73,30.02,10.0,NE,23.0,36.8,N/A,,Overcast,40,2013-03-07 06:54:00
2:54 AM,36.0,28.9,76,30.01,6.0,NE,31.1,40.3,0.00,Rain,Light Rain,40,2013-03-07 07:54:00
3:51 AM,33.8,28.4,81,30.01,1.0,NNE,32.2,39.1,0.00,Snow,Light Snow,30,2013-03-07 08:51:00
3:52 AM,34.0,28.9,82,30.01,1.0,NNE,28.8,38.0,0.00,Snow,Light Snow,30,2013-03-07 08:52:00
4:34 AM,33.8,30.2,87,30.01,1.0,NNE,26.5,32.2,0.02,Snow,Light Snow,20,2013-03-07 09:34:00
4:36 AM,33.8,30.2,87,30.01,1.0,NNE,24.2,32.2,0.02,Snow,Light Snow,20,2013-03-07 09:36:00
4:54 AM,33.1,30.0,89,30.01,1.5,NNE,23.0,34.5,0.02,Snow,Light Snow,20,2013-03-07 09:54:00
5:54 AM,33.1,30.0,89,30.02,1.5,NNE,27.6,36.8,0.00,Snow,Light Snow,20,2013-03-07 10:54:00
6:22 AM,33.8,30.2,87,30.02,0.5,NNE,28.8,39.1,0.00,Snow,Light Snow,20,2013-03-07 11:22:00
6:39 AM,32.0,30.2,93,30.02,0.5,NNE,28.8,36.8,0.00,Snow,Light Snow,20,2013-03-07 11:39:00
6:54 AM,32.0,28.9,88,30.03,0.5,NNE,26.5,35.7,0.01,Fog-Snow,Snow,20,2013-03-07 11:54:00
7:37 AM,32.0,30.2,93,30.03,0.5,NNE,28.8,36.8,0.00,Fog-Snow,Snow,20,2013-03-07 12:37:00
7:54 AM,32.0,30.0,92,30.03,0.5,NNE,27.6,36.8,0.00,Fog-Snow,Snow,20,2013-03-07 12:54:00
8:30 AM,33.8,30.2,87,30.03,0.5,NNE,26.5,32.2,0.00,Snow,Light Snow,20,2013-03-07 13:30:00
8:54 AM,33.1,30.9,92,30.02,0.5,NNE,27.6,35.7,0.01,Snow,Light Snow,20,2013-03-07 13:54:00
9:08 AM,33.8,30.2,87,30.02,0.5,NNE,26.5,38.0,0.00,Snow,Light Snow,20,2013-03-07 14:08:00
9:40 AM,33.8,32.0,93,30.02,0.5,NNE,27.6,36.8,0.00,Snow,Light Snow,20,2013-03-07 14:40:00
9:54 AM,33.1,32.0,96,30.01,0.5,NNE,29.9,35.7,0.00,Snow,Light Snow,30,2013-03-07 14:54:00
10:30 AM,33.8,32.0,93,30.01,0.5,NNE,27.6,36.8,0.01,Snow,Light Snow,20,2013-03-07 15:30:00
10:54 AM,33.1,32.0,96,30.01,0.5,NNE,27.6,39.1,0.01,Snow,Light Snow,20,2013-03-07 15:54:00
11:02 AM,33.8,32.0,93,30.01,0.5,NNE,26.5,36.8,0.00,Snow,Light Snow,20,2013-03-07 16:02:00
11:54 AM,33.1,32.0,96,30.02,0.5,NNE,27.6,38.0,0.00,Snow,Light Snow,20,2013-03-07 16:54:00
12:44 PM,33.8,33.8,100,30.02,0.5,NNE,23.0,39.1,0.00,Snow,Light Snow,20,2013-03-07 17:44:00
12:54 PM,33.1,32.0,96,30.01,0.5,NNE,27.6,35.7,0.01,Snow,Light Snow,20,2013-03-07 17:54:00
1:16 PM,33.8,32.0,93,30.02,0.5,NNE,25.3,36.8,0.00,Snow,Light Snow,20,2013-03-07 18:16:00
1:54 PM,32.0,32.0,100,30.02,0.5,NNE,23.0,33.4,0.00,Fog-Snow,Snow,20,2013-03-07 18:54:00
2:54 PM,32.0,30.9,96,30.02,0.5,NNE,27.6,36.8,0.01,Snow,Light Snow,20,2013-03-07 19:54:00
3:17 PM,30.2,30.2,100,30.02,0.5,NNE,24.2,33.4,0.00,Fog-Snow,Snow,20,2013-03-07 20:17:00
3:54 PM,30.9,30.0,96,30.02,0.5,NNE,23.0,36.8,0.00,Snow,Light Snow,20,2013-03-07 20:54:00
4:54 PM,30.9,30.0,96,30.03,0.5,North,18.4,28.8,0.00,Snow,Light Snow,360,2013-03-07 21:54:00
5:29 PM,30.2,28.4,93,30.04,0.5,North,18.4,-,0.00,Snow,Light Snow,10,2013-03-07 22:29:00
5:42 PM,30.2,28.4,93,30.04,0.5,North,20.7,25.3,0.00,Snow,Light Snow,10,2013-03-07 22:42:00
5:54 PM,30.9,28.0,89,30.04,0.5,North,18.4,27.6,0.00,Snow,Light Snow,360,2013-03-07 22:54:00
6:54 PM,30.0,28.9,96,30.03,0.5,North,19.6,26.5,0.01,Snow,Light Snow,360,2013-03-07 23:54:00
7:06 PM,30.2,28.4,93,30.03,1.5,North,19.6,26.5,0.00,Snow,Light Snow,360,2013-03-08 00:06:00
7:54 PM,30.9,28.0,89,30.02,1.5,North,17.3,26.5,0.00,Snow,Light Snow,10,2013-03-08 00:54:00
8:54 PM,30.9,28.9,92,30.01,1.5,North,17.3,24.2,0.00,Snow,Light Snow,10,2013-03-08 01:54:00
9:17 PM,30.2,28.4,93,30.01,1.2,North,16.1,26.5,0.00,Snow,Light Snow,10,2013-03-08 02:17:00
9:24 PM,30.2,28.4,93,30.01,1.2,North,15.0,-,0.00,Snow,Light Snow,360,2013-03-08 02:24:00
9:46 PM,30.2,28.4,93,30.00,1.2,North,18.4,25.3,0.01,Snow,Light Snow,10,2013-03-08 02:46:00
9:54 PM,30.9,30.0,96,30.00,1.2,North,17.3,29.9,0.01,Snow,Light Snow,10,2013-03-08 02:54:00
10:54 PM,30.9,30.0,96,29.99,1.0,North,18.4,23.0,0.01,Snow,Light Snow,10,2013-03-08 03:54:00
11:54 PM,30.0,28.9,96,29.99,1.5,North,15.0,23.0,0.01,Snow,Light Snow,360,2013-03-08 04:54:00